View from above orbital plane
|
View from above satellite
|
Ground track
|
The orbit data is extracted from the following two-line orbital elements,
1 51U 60009C 19340.39541141 -.00000098 +00000-0 -13130-3 0 9996
2 51 047.2115 227.7841 0106496 307.6644 051.4522 12.18274357640431
Epoch (UTC): | 06 December 2019 09:29:23 |
Eccentricity: | 0.0106496 |
inclination: | 47.2115° |
perigee height: | 1515 km |
apogee height: | 1685 km |
right ascension of ascending node: | 227.7841° |
argument of perigee: | 307.6644° |
revolutions per day: | 12.18274357 |
mean anomaly at epoch: | 51.4522° |
orbit number at epoch: | 64043 |
The dashed part of the orbit path shows where the satellite is in the earth's shadow,
|
|